Location: Casilda
(33.0440°S, 61.1680°W)
Time: 16:44:36
(UTC-03:00)

ISS - Pass Details

Date: 20 September 2020
Orbit: 419 x 421 km, 51.6° (Epoch: 27 September)

Event Time Altitude Azimuth Distance (km) Brightness Sun altitude
Rises 06:25:06 0° 330° (NNW) 2,362 -0.3 -7.3°
Reaches altitude 10° 06:27:15 10° 337° (NNW) 1,506 -1.2 -6.9°
Maximum altitude 06:30:27 41° 48° (NE) 635 -2.4 -6.2°
Drops below altitude 10° 06:33:42 10° 120° (ESE) 1,525 0.3 -5.5°
Sets 06:35:53 0° 127° (SE) 2,398 1.1 -5.1°
